Погода в Целинном

Россия / Алтайский край     53°04′40″N   85°39′30″E
темп.,
°C
ветер,
м/с
пор.,
м/с
влажн.,
%
обл.,
%
осадки,
мм/ч
давл.,
гПа
погр.,
м
6 марта, сб
сб601:00−4юз112172100 0.0 10251052
04:00−5юз91978100 0.0 10241000
07:00−7ююз51682100 0.0 1024589
10:00−7ююз51681100 0.0 1023753
13:00−5ю51280100 0.0 1020689
16:00−4ююз51378100 0.0 1018843
19:00−5ююз41080100 0.0 1018211
22:00−6ююз41283100 0.0 1018333
7 марта, вс
вс701:00−6ююз51386100 0.0 1017444
04:00−6ююз51485100 0.0 1016557
07:00−7ююз51287100 0.0 1018398
10:00−5юз61390100 0.0 1019602
13:00−3юз61095100 0.6 1020676
16:00−2зюз5895100 1.0 1021647
19:00−3юз3597100 1.6 1022273
22:00−5ююз2397100 0.2 102455
8 марта, пн
пн801:00−6ююз3397100 0.3 102367
04:00−6ююв239398 0.0 102133
07:00−7юв348694 0.0 102134
10:00−5юв3785100 0.0 1018146
13:00−1ююв4786100 0.0 1015222
16:00−1ююз4786100 0.0 1014222
19:00−2ююз51981100 0.0 1015767
22:000зюз91882100 0.0 1017856
9 марта, вт
вт901:00−1зюз71589100 0.0 1019715
04:00−2з6129396 0.5 1021737
07:00−11з349297 0.6 102548
10:00−11юз359322 0.0 1028145
13:00−8ююз358718 0.0 1028212
16:00−6ю238651 0.0 1026227
19:00−6юв338973 0.0 102449
22:00−5юв4889100 0.0 1023148
10 марта, ср
ср1001:00−3ююв4889100 0.0 1020145
04:00−3ю479795 0.3 1018176
07:00−3ю489796 0.9 1018209
10:00−1ю489797 0.4 1017301
13:000ю369497 0.4 1015230
16:000юв2496100 0.0 1013124
19:00−2вюв459283 0.0 101085
22:00−1юв5992100 0.0 1008174